{"data":{"norad_id":58606,"epoch":"2026-05-25T04:53:00.562272Z","epoch_age_seconds":54503,"freshness":"FRESH","line1":"1 58606U 23200T   26145.20347873  .00002563  00000+0  10268-3 0  9999","line2":"2 58606  43.0035  96.6544 0001287 263.5373  96.5332 15.27566344135317","mean_motion":15.27566344,"eccentricity":0.0001287,"inclination_deg":43.0035,"raan_deg":96.6544,"arg_perigee_deg":263.5373,"mean_anomaly_deg":96.5332,"bstar":0.00010268,"rev_number":13531,"period_min":94.26759143104,"perigee_km":482.20694740773,"apogee_km":483.97302723427,"semimajor_km":6861.226987321,"source":"CELESTRAK","updated_at":"2026-05-25T13:38:18.703423Z"}}